Torna al catalogo

YUNYAO-1 44

AttivoScienzaSSO
NORAD 63345·PAYLOAD·🇨🇳 China

Lanciato Mar 21, 2025 da Jiuquan Satellite Launch Center

Loading…

Prossimi Passaggi (prossime 24 ore)

TLE

AggiornatoSource: Space-Track

Epoca: Sep 14, 2026, 14:10 UTC

1 63345U 25059B   26257.59061282  .00003020  00000-0  18183-3 0  9996
2 63345  97.6129  78.4830 0015958 206.6107 153.4305 15.11484767 81809

Traccia YUNYAO-1 44 in tempo reale con AllMySat

Download on the App Store